DW9353 Weather Reports


Display with metric or nautical units.
time (UTC)temp
F
wind
direction
speed
MPH
gust
MPH
rain 1hr
in
rain 24hr
in
rain mn
in
humidity
%
barometer
mb
20181211031502 18 0 0.0 0.0 0.00 0.00 0.00 61 1021.4
20181211031002 19 0 0.0 0.0 0.00 0.00 0.00 61 1021.4
20181211030501 19 0 0.0 0.0 0.00 0.00 0.00 61 1021.4
20181211030002 19 0 0.0 0.0 0.00 0.00 0.00 60 1021.4
20181211025501 19 318 0.0 1.0 0.00 0.00 0.00 60 1021.4
20181211025002 19 318 0.0 1.0 0.00 0.00 0.00 59 1021.4
20181211024502 20 318 0.0 1.0 0.00 0.00 0.00 58 1021.4
20181211024001 20 318 0.0 1.0 0.00 0.00 0.00 57 1021.3
20181211023502 20 0 0.0 0.0 0.00 0.00 0.00 58 1021.4
20181211023002 20 0 0.0 0.0 0.00 0.00 0.00 57 1021.3
20181211022502 21 0 0.0 0.0 0.00 0.00 0.00 57 1021.3
20181211022002 21 0 0.0 0.0 0.00 0.00 0.00 56 1021.3
20181211021501 21 0 0.0 0.0 0.00 0.00 0.00 56 1021.4
20181211021001 21 0 0.0 0.0 0.00 0.00 0.00 55 1021.4
20181211020502 21 0 0.0 0.0 0.00 0.00 0.00 56 1021.3
20181211020002 21 0 0.0 0.0 0.00 0.00 0.00 55 1021.2
20181211015502 21 0 0.0 0.0 0.00 0.00 0.00 55 1021.2
20181211015001 22 318 0.0 1.0 0.00 0.00 0.00 55 1021.2
20181211014501 22 287 0.0 3.0 0.00 0.00 0.00 55 1021.1
20181211014002 22 300 1.0 4.0 0.00 0.00 0.00 56 1021.0
20181211013502 22 307 1.0 4.0 0.00 0.00 0.00 56 1021.1
20181211013002 22 320 0.0 3.0 0.00 0.00 0.00 54 1021.1
20181211012501 22 327 0.0 2.0 0.00 0.00 0.00 54 1021.1
20181211012002 23 327 0.0 1.0 0.00 0.00 0.00 54 1021.2
20181211011502 23 326 0.0 2.0 0.00 0.00 0.00 53 1021.2
20181211011001 23 324 0.0 2.0 0.00 0.00 0.00 52 1021.2
20181211010501 23 271 0.0 3.0 0.00 0.00 0.00 52 1021.2
20181211010002 24 269 0.0 3.0 0.00 0.00 0.00 52 1021.1
20181211005502 24 306 1.0 5.0 0.00 0.00 0.00 52 1021.0
20181211005002 24 306 1.0 5.0 0.00 0.00 0.00 51 1021.0
20181211004501 24 295 0.0 3.0 0.00 0.00 0.00 51 1021.1
20181211004002 24 303 0.0 4.0 0.00 0.00 0.00 51 1021.0
20181211003502 24 286 1.0 4.0 0.00 0.00 0.00 51 1021.0
20181211003002 24 235 0.0 2.0 0.00 0.00 0.00 51 1021.0
20181211002502 24 39 0.0 6.0 0.00 0.00 0.00 51 1020.9
20181211002002 24 345 1.0 6.0 0.00 0.00 0.00 52 1020.9
20181211001501 24 333 1.0 5.0 0.00 0.00 0.00 52 1020.8
20181211001002 24 337 1.0 7.0 0.00 0.00 0.00 53 1020.8
20181211000502 24 331 1.0 7.0 0.00 0.00 0.00 54 1020.8
20181211000002 24 320 0.0 6.0 0.00 0.00 0.00 54 1020.8
20181210235502 24 314 0.0 6.0 0.00 0.00 0.00 54 1020.8
20181210235001 23 309 0.0 2.0 0.00 0.00 0.00 53 1020.7
20181210234502 23 0 0.0 0.0 0.00 0.00 0.00 53 1020.7
20181210234002 24 0 0.0 0.0 0.00 0.00 0.00 55 1020.8
20181210233501 24 0 0.0 0.0 0.00 0.00 0.00 55 1020.7
20181210233002 24 0 0.0 0.0 0.00 0.00 0.00 54 1020.6
20181210232501 24 0 0.0 0.0 0.00 0.00 0.00 53 1020.6
20181210232002 24 308 0.0 1.0 0.00 0.00 0.00 52 1020.5
20181210231502 25 308 0.0 1.0 0.00 0.00 0.00 52 1020.5
20181210231001 25 321 0.0 3.0 0.00 0.00 0.00 51 1020.4
20181210230501 25 325 0.0 3.0 0.00 0.00 0.00 50 1020.4
20181210230002 25 332 0.0 3.0 0.00 0.00 0.00 50 1020.3
20181210225501 25 319 0.0 3.0 0.00 0.00 0.00 51 1020.3
20181210225002 25 292 0.0 2.0 0.00 0.00 0.00 51 1020.3
20181210224501 26 0 0.0 0.0 0.00 0.00 0.00 50 1020.3
20181210224001 26 303 0.0 1.0 0.00 0.00 0.00 50 1020.2
20181210223502 26 303 0.0 1.0 0.00 0.00 0.00 49 1020.3
20181210223002 26 303 0.0 1.0 0.00 0.00 0.00 49 1020.3
20181210222502 26 303 0.0 1.0 0.00 0.00 0.00 47 1020.2
20181210222002 27 294 0.0 2.0 0.00 0.00 0.00 48 1020.1
20181210221501 27 288 0.0 3.0 0.00 0.00 0.00 47 1020.1
20181210221002 27 272 0.0 3.0 0.00 0.00 0.00 48 1020.0
20181210220502 27 255 0.0 1.0 0.00 0.00 0.00 47 1020.1
20181210220003 27 279 0.0 3.0 0.00 0.00 0.00 46 1020.0
20181210215502 28 292 0.0 3.0 0.00 0.00 0.00 47 1020.0
20181210215001 28 301 0.0 3.0 0.00 0.00 0.00 47 1019.9
20181210214501 28 306 0.0 2.0 0.00 0.00 0.00 45 1019.8
20181210214002 28 309 1.0 6.0 0.00 0.00 0.00 44 1019.8
20181210213502 28 311 1.0 6.0 0.00 0.00 0.00 44 1019.8
20181210213002 29 313 1.0 5.0 0.00 0.00 0.00 44 1019.7
20181210212502 29 0 0.0 0.0 0.00 0.00 0.00 44 1019.7
20181210212001 29 354 0.0 3.0 0.00 0.00 0.00 42 1019.7
20181210211502 30 322 1.0 3.0 0.00 0.00 0.00 41 1019.7
20181210211002 30 303 0.0 3.0 0.00 0.00 0.00 42 1019.7
20181210210501 30 328 1.0 8.0 0.00 0.00 0.00 40 1019.6
20181210210002 30 323 1.0 8.0 0.00 0.00 0.00 41 1019.6
20181210205501 30 322 2.0 8.0 0.00 0.00 0.00 40 1019.6
20181210205002 31 313 2.0 8.0 0.00 0.00 0.00 40 1019.6
20181210204501 31 304 1.0 9.0 0.00 0.00 0.00 39 1019.5
20181210204001 31 314 2.0 11.0 0.00 0.00 0.00 38 1019.5
20181210203502 31 319 2.0 11.0 0.00 0.00 0.00 38 1019.4
20181210203002 31 309 2.0 11.0 0.00 0.00 0.00 38 1019.4
20181210202502 32 301 1.0 11.0 0.00 0.00 0.00 37 1019.4
20181210202002 32 319 2.0 9.0 0.00 0.00 0.00 37 1019.4
20181210201501 32 331 3.0 14.0 0.00 0.00 0.00 36 1019.3
20181210201002 32 328 3.0 14.0 0.00 0.00 0.00 35 1019.2
20181210200501 32 316 3.0 13.0 0.00 0.00 0.00 35 1019.1
20181210200002 32 270 2.0 9.0 0.00 0.00 0.00 35 1019.0
20181210195501 32 241 1.0 7.0 0.00 0.00 0.00 36 1019.1
20181210195002 33 292 2.0 10.0 0.00 0.00 0.00 36 1019.0
20181210194502 33 297 2.0 14.0 0.00 0.00 0.00 36 1018.9
20181210194001 33 283 2.0 14.0 0.00 0.00 0.00 35 1018.9
20181210193502 34 285 3.0 8.0 0.00 0.00 0.00 33 1018.9
20181210193003 34 305 3.0 11.0 0.00 0.00 0.00 35 1019.0
20181210192502 34 295 2.0 11.0 0.00 0.00 0.00 35 1018.7
20181210192001 34 257 2.0 8.0 0.00 0.00 0.00 37 1018.7
20181210191503 34 284 3.0 10.0 0.00 0.00 0.00 36 1018.7
20181210191002 35 290 3.0 10.0 0.00 0.00 0.00 37 1018.8
20181210190502 35 307 2.0 8.0 0.00 0.00 0.00 36 1018.7
20181210190002 35 322 2.0 10.0 0.00 0.00 0.00 36 1018.6
20181210185502 35 318 2.0 10.0 0.00 0.00 0.00 36 1018.6
20181210185001 35 304 2.0 8.0 0.00 0.00 0.00 35 1018.5
20181210184502 35 311 3.0 10.0 0.00 0.00 0.00 36 1018.4
20181210184002 35 314 2.0 13.0 0.00 0.00 0.00 35 1018.3
20181210183502 35 310 2.0 13.0 0.00 0.00 0.00 37 1018.3
20181210183002 35 286 2.0 8.0 0.00 0.00 0.00 36 1018.3
20181210182501 35 271 3.0 10.0 0.00 0.00 0.00 36 1018.3
20181210182002 35 270 2.0 10.0 0.00 0.00 0.00 36 1018.4
20181210181502 35 300 2.0 8.0 0.00 0.00 0.00 37 1018.3
20181210181001 35 303 3.0 11.0 0.00 0.00 0.00 36 1018.3
20181210180502 36 312 3.0 12.0 0.00 0.00 0.00 35 1018.4
20181210180002 36 324 2.0 12.0 0.00 0.00 0.00 36 1018.4
20181210175502 37 295 2.0 12.0 0.00 0.00 0.00 37 1018.3
20181210175002 37 302 3.0 12.0 0.00 0.00 0.00 36 1018.3
20181210174501 37 305 3.0 15.0 0.00 0.00 0.00 37 1018.3
20181210174001 37 304 3.0 15.0 0.00 0.00 0.00 37 1018.3
20181210173502 37 320 2.0 13.0 0.00 0.00 0.00 37 1018.3
20181210173002 37 340 2.0 7.0 0.00 0.00 0.00 36 1018.3
20181210172501 36 352 2.0 7.0 0.00 0.00 0.00 37 1018.3
20181210172003 36 346 3.0 12.0 0.00 0.00 0.00 36 1018.3
20181210171503 36 339 2.0 12.0 0.00 0.00 0.00 37 1018.3
20181210171002 36 329 3.0 8.0 0.00 0.00 0.00 38 1018.3
20181210170501 36 327 3.0 8.0 0.00 0.00 0.00 38 1018.4
20181210170002 36 319 3.0 8.0 0.00 0.00 0.00 37 1018.5
20181210165502 36 289 3.0 8.0 0.00 0.00 0.00 38 1018.4
20181210165002 36 274 3.0 8.0 0.00 0.00 0.00 39 1018.5
20181210164501 36 297 2.0 14.0 0.00 0.00 0.00 38 1018.6
20181210164001 36 324 2.0 14.0 0.00 0.00 0.00 40 1018.7
20181210163502 36 326 2.0 5.0 0.00 0.00 0.00 39 1018.6
20181210163002 36 316 2.0 16.0 0.00 0.00 0.00 39 1018.7
20181210162502 36 304 3.0 16.0 0.00 0.00 0.00 38 1018.8
20181210162002 36 299 2.0 9.0 0.00 0.00 0.00 40 1018.9
20181210161501 36 350 2.0 9.0 0.00 0.00 0.00 40 1019.0
20181210161002 36 343 2.0 10.0 0.00 0.00 0.00 41 1019.1
20181210160502 35 318 2.0 10.0 0.00 0.00 0.00 40 1019.1
20181210160002 35 302 2.0 8.0 0.00 0.00 0.00 41 1019.1
20181210155502 35 301 2.0 8.0 0.00 0.00 0.00 42 1019.2
20181210155002 35 292 1.0 8.0 0.00 0.00 0.00 42 1019.1
20181210154502 35 310 1.0 8.0 0.00 0.00 0.00 42 1019.2
20181210154002 34 332 2.0 9.0 0.00 0.00 0.00 43 1019.2
20181210153501 34 318 3.0 13.0 0.00 0.00 0.00 43 1019.3
20181210153002 34 314 3.0 13.0 0.00 0.00 0.00 44 1019.4
20181210152502 33 305 2.0 10.0 0.00 0.00 0.00 48 1019.3
20181210152002 33 319 2.0 13.0 0.00 0.00 0.00 51 1019.4
20181210151502 33 323 2.0 13.0 0.00 0.00 0.00 57 1019.5
20181210151001 32 299 1.0 8.0 0.00 0.00 0.00 58 1019.5
20181210150502 32 310 2.0 9.0 0.00 0.00 0.00 59 1019.6
20181210150003 32 316 3.0 10.0 0.00 0.00 0.00 59 1019.6
20181210145502 32 323 3.0 10.0 0.00 0.00 0.00 59 1019.7
20181210145001 31 337 2.0 10.0 0.00 0.00 0.00 60 1019.7
20181210144502 31 321 2.0 11.0 0.00 0.00 0.00 62 1019.7
20181210144002 31 321 2.0 13.0 0.00 0.00 0.00 62 1019.7
20181210143502 30 337 4.0 13.0 0.00 0.00 0.00 64 1019.7
20181210143002 30 339 3.0 11.0 0.00 0.00 0.00 65 1019.5
20181210142502 29 330 2.0 8.0 0.00 0.00 0.00 70 1019.4
20181210142001 28 323 1.0 8.0 0.00 0.00 0.00 75 1019.5
20181210141504 27 307 1.0 4.0 0.00 0.00 0.00 80 1019.4
20181210141002 26 314 1.0 5.0 0.00 0.00 0.00 84 1019.4
20181210140502 25 310 1.0 5.0 0.00 0.00 0.00 85 1019.4
20181210140003 24 287 0.0 2.0 0.00 0.00 0.00 88 1019.3
20181210135505 23 299 0.0 2.0 0.00 0.00 0.00 89 1019.3
20181210135002 22 314 0.0 2.0 0.00 0.00 0.00 91 1019.1
20181210134501 21 329 0.0 2.0 0.00 0.00 0.00 92 1019.1
20181210134002 20 314 0.0 3.0 0.00 0.00 0.00 93 1019.0
20181210133502 19 301 0.0 3.0 0.00 0.00 0.00 93 1018.9
20181210133002 18 257 0.0 1.0 0.00 0.00 0.00 93 1018.8
20181210132502 18 0 0.0 0.0 0.00 0.00 0.00 93 1018.8
20181210132002 17 0 0.0 0.0 0.00 0.00 0.00 93 1018.7
20181210131502 17 0 0.0 0.0 0.00 0.00 0.00 93 1018.7
20181210131001 16 0 0.0 0.0 0.00 0.00 0.00 92 1018.5
20181210130502 16 0 0.0 0.0 0.00 0.00 0.00 89 1018.4
20181210130002 15 0 0.0 0.0 0.00 0.00 0.00 88 1018.4
20181210125502 15 0 0.0 0.0 0.00 0.00 0.00 86 1018.4
20181210125002 15 0 0.0 0.0 0.00 0.00 0.00 85 1018.3
20181210124501 15 0 0.0 0.0 0.00 0.00 0.00 85 1018.3
20181210124002 15 0 0.0 0.0 0.00 0.00 0.00 84 1018.3
20181210123502 15 0 0.0 0.0 0.00 0.00 0.00 84 1018.3
20181210123002 15 0 0.0 0.0 0.00 0.00 0.00 84 1018.2
20181210122502 15 0 0.0 0.0 0.00 0.00 0.00 84 1018.2
20181210122001 15 0 0.0 0.0 0.00 0.00 0.00 84 1018.2
20181210121502 15 0 0.0 0.0 0.00 0.00 0.00 84 1018.3
20181210121002 15 0 0.0 0.0 0.00 0.00 0.00 84 1018.2
20181210120502 15 0 0.0 0.0 0.00 0.00 0.00 84 1018.3
20181210120002 15 0 0.0 0.0 0.00 0.00 0.00 84 1018.2
20181210115502 15 0 0.0 0.0 0.00 0.00 0.00 84 1018.1
20181210115003 15 0 0.0 0.0 0.00 0.00 0.00 84 1018.2
20181210114502 15 0 0.0 0.0 0.00 0.00 0.00 84 1018.1
20181210114001 15 0 0.0 0.0 0.00 0.00 0.00 84 1018.2
20181210113501 15 0 0.0 0.0 0.00 0.00 0.00 83 1018.1
20181210113002 15 0 0.0 0.0 0.00 0.00 0.00 83 1018.1
20181210112502 16 0 0.0 0.0 0.00 0.00 0.00 83 1018.1
20181210112002 16 0 0.0 0.0 0.00 0.00 0.00 83 1018.1
20181210111502 16 0 0.0 0.0 0.00 0.00 0.00 84 1018.2
20181210111001 16 0 0.0 0.0 0.00 0.00 0.00 84 1018.1
20181210110502 16 0 0.0 0.0 0.00 0.00 0.00 84 1018.1
20181210110002 16 257 0.0 1.0 0.00 0.00 0.00 84 1018.1
20181210105502 16 257 0.0 1.0 0.00 0.00 0.00 84 1018.1
20181210105002 16 257 0.0 1.0 0.00 0.00 0.00 84 1018.0
20181210104501 16 257 0.0 1.0 0.00 0.00 0.00 83 1017.9
20181210104001 16 257 0.0 1.0 0.00 0.00 0.00 83 1017.9
20181210103502 16 258 0.0 2.0 0.00 0.00 0.00 83 1017.9
20181210103003 16 258 0.0 2.0 0.00 0.00 0.00 84 1017.8
20181210102502 16 238 0.0 2.0 0.00 0.00 0.00 84 1017.8
20181210102002 16 208 0.0 2.0 0.00 0.00 0.00 84 1017.7
20181210101501 16 154 0.0 2.0 0.00 0.00 0.00 84 1017.7
20181210101002 16 154 0.0 1.0 0.00 0.00 0.00 84 1017.7
20181210100502 16 167 0.0 2.0 0.00 0.00 0.00 84 1017.6
20181210100002 16 277 0.0 3.0 0.00 0.00 0.00 83 1017.6
20181210095502 16 285 0.0 3.0 0.00 0.00 0.00 82 1017.5
20181210095002 16 0 0.0 0.0 0.00 0.00 0.00 80 1017.6
20181210094502 16 0 0.0 0.0 0.00 0.00 0.00 80 1017.6
20181210094002 16 0 0.0 0.0 0.00 0.00 0.00 80 1017.7
20181210093501 16 0 0.0 0.0 0.00 0.00 0.00 79 1017.7
20181210093002 16 305 0.0 1.0 0.00 0.00 0.00 79 1017.7
20181210092501 16 305 0.0 1.0 0.00 0.00 0.00 79 1017.7
20181210092002 16 0 0.0 0.0 0.00 0.00 0.00 78 1017.7
20181210091502 16 0 0.0 0.0 0.00 0.00 0.00 78 1017.8
20181210091002 16 0 0.0 0.0 0.00 0.00 0.00 78 1017.7
20181210090502 16 0 0.0 0.0 0.00 0.00 0.00 78 1017.8
20181210090002 17 0 0.0 0.0 0.00 0.00 0.00 78 1017.8
20181210085502 17 305 0.0 1.0 0.00 0.00 0.00 78 1017.7
20181210085002 17 305 0.0 1.0 0.00 0.00 0.00 78 1017.7
20181210084502 17 305 0.0 1.0 0.00 0.00 0.00 78 1017.7
20181210084002 17 305 0.0 2.0 0.00 0.00 0.00 78 1017.6
20181210083501 17 305 0.0 2.0 0.00 0.00 0.00 78 1017.6
20181210083002 17 0 0.0 0.0 0.00 0.00 0.00 78 1017.6
20181210082002 17 0 0.0 0.0 0.00 0.00 0.00 77 1017.7
20181210081503 18 0 0.0 0.0 0.00 0.00 0.00 77 1017.8
20181210081001 18 0 0.0 0.0 0.00 0.00 0.00 77 1017.8
20181210080502 18 0 0.0 0.0 0.00 0.00 0.00 77 1017.9
20181210080003 18 0 0.0 0.0 0.00 0.00 0.00 77 1018.0
20181210075502 18 305 0.0 1.0 0.00 0.00 0.00 76 1018.1
20181210075001 18 305 0.0 1.0 0.00 0.00 0.00 76 1018.2
20181210074502 18 0 0.0 0.0 0.00 0.00 0.00 76 1018.2
20181210074002 18 0 0.0 0.0 0.00 0.00 0.00 76 1018.2
20181210073501 18 0 0.0 0.0 0.00 0.00 0.00 76 1018.3
20181210073003 18 0 0.0 0.0 0.00 0.00 0.00 76 1018.3
20181210072502 19 0 0.0 0.0 0.00 0.00 0.00 75 1018.4
20181210072002 19 305 0.0 1.0 0.00 0.00 0.00 75 1018.5
20181210071502 19 305 0.0 1.0 0.00 0.00 0.00 75 1018.5
20181210071002 19 305 0.0 1.0 0.00 0.00 0.00 74 1018.4
20181210070502 19 305 0.0 1.0 0.00 0.00 0.00 74 1018.4
20181210070002 19 305 0.0 1.0 0.00 0.00 0.00 74 1018.5
20181210065502 20 0 0.0 0.0 0.00 0.00 0.00 74 1018.4
20181210065002 20 0 0.0 0.0 0.00 0.00 0.00 73 1018.5
20181210064505 20 0 0.0 0.0 0.00 0.00 0.00 73 1018.4
20181210064003 20 0 0.0 0.0 0.00 0.00 0.00 73 1018.3
20181210063502 20 0 0.0 0.0 0.00 0.00 0.00 73 1018.3
20181210063002 20 0 0.0 0.0 0.00 0.00 0.00 72 1018.4
20181210062502 21 305 0.0 1.0 0.00 0.00 0.00 72 1018.4
20181210062002 21 305 0.0 1.0 0.00 0.00 0.00 73 1018.5
20181210061502 21 0 0.0 0.0 0.00 0.00 0.00 72 1018.5
20181210061002 21 305 0.0 1.0 0.00 0.00 0.00 72 1018.7
20181210060503 22 305 0.0 1.0 0.00 0.00 0.00 72 1018.7
20181210060002 22 305 0.0 1.0 0.00 0.00 0.00 71 1018.8
20181210055502 22 305 0.0 1.0 0.00 0.00 0.00 71 1018.8
20181210055002 22 0 0.0 0.0 0.00 0.00 0.00 71 1018.9
20181210054502 22 0 0.0 0.0 0.00 0.00 0.00 71 1018.9
20181210054002 22 280 0.0 2.0 0.00 0.00 0.00 71 1018.9
20181210053502 22 258 1.0 3.0 0.00 0.00 0.00 71 1018.9
20181210053003 22 254 1.0 3.0 0.00 0.00 0.00 71 1018.8
20181210052502 22 249 1.0 3.0 0.00 0.00 0.00 72 1018.9
20181210052001 21 252 1.0 4.0 0.00 0.00 0.00 72 1019.0
20181210051503 21 241 1.0 4.0 0.00 0.00 0.00 72 1019.0
20181210051002 21 228 1.0 3.0 0.00 0.00 0.00 73 1019.0
20181210050502 21 261 1.0 3.0 0.00 0.00 0.00 73 1019.1
20181210050003 21 282 1.0 3.0 0.00 0.00 0.00 73 1019.3
20181210045501 21 274 1.0 3.0 0.00 0.00 0.00 73 1019.2
20181210045002 21 262 1.0 3.0 0.00 0.00 0.00 73 1019.3
20181210044502 21 249 1.0 3.0 0.00 0.00 0.00 73 1019.3
20181210044002 21 231 0.0 3.0 0.00 0.00 0.00 73 1019.4
20181210043501 21 231 0.0 2.0 0.00 0.00 0.00 74 1019.5
20181210043002 21 231 0.0 2.0 0.00 0.00 0.00 74 1019.6
20181210042501 21 232 0.0 1.0 0.00 0.00 0.00 74 1019.7
20181210042002 21 232 0.0 1.0 0.00 0.00 0.00 74 1019.8
20181210041502 21 232 0.0 1.0 0.00 0.00 0.00 73 1019.9
20181210041002 21 0 0.0 0.0 0.00 0.00 0.00 73 1020.0
20181210040502 21 0 0.0 0.0 0.00 0.00 0.00 72 1020.1
20181210040002 21 232 0.0 1.0 0.00 0.00 0.00 72 1020.0
20181210035502 22 232 0.0 1.0 0.00 0.00 0.00 72 1020.0
20181210035002 22 0 0.0 0.0 0.00 0.00 0.00 72 1020.1
20181210034502 22 0 0.0 0.0 0.00 0.00 0.00 72 1020.2
20181210034002 22 0 0.0 0.0 0.00 0.00 0.00 72 1020.1
20181210033502 22 232 0.0 1.0 0.00 0.00 0.00 72 1020.0
20181210033003 22 232 0.0 1.0 0.00 0.00 0.00 72 1019.9
20181210032002 23 0 0.0 0.0 0.00 0.00 0.00 70 1020.1